| time (UTC) | temp C | wind direction | speed KPH | gust KPH | rain 1hr cm | rain 24hr cm | rain mn cm | humidity % | barometer mb |
| 20260508122102 | 17 | 165 | 9.7 | 17.7 | 0.00 | 0.00 | 0.00 | 56 | 1009.4 |
| 20260508121021 | 17 | 164 | 8.0 | 20.9 | 0.00 | 0.00 | 0.00 | 56 | 1009.5 |
| 20260508120045 | 17 | 174 | 11.3 | 22.5 | 0.00 | 0.00 | 0.00 | 55 | 1009.5 |
| 20260508115109 | 17 | 175 | 8.0 | 16.1 | 0.00 | 0.00 | 0.00 | 60 | 1009.4 |
| 20260508114030 | 16 | 158 | 8.0 | 14.5 | 0.00 | 0.00 | 0.00 | 62 | 1009.4 |
| 20260508113055 | 16 | 158 | 6.4 | 12.9 | 0.00 | 0.00 | 0.00 | 65 | 1009.4 |
| 20260508112138 | 16 | 142 | 6.4 | 14.5 | 0.00 | 0.00 | 0.00 | 67 | 1009.7 |
| 20260508111118 | 16 | 159 | 6.4 | 12.9 | 0.00 | 0.00 | 0.00 | 67 | 1009.8 |
| 20260508110121 | 16 | 165 | 9.7 | 17.7 | 0.00 | 0.00 | 0.00 | 67 | 1009.9 |
| 20260508105041 | 16 | 133 | 8.0 | 14.5 | 0.00 | 0.00 | 0.00 | 67 | 1009.9 |
| 20260508104046 | 16 | 158 | 12.9 | 20.9 | 0.00 | 0.00 | 0.00 | 68 | 1009.9 |
| 20260508103110 | 15 | 140 | 8.0 | 20.9 | 0.00 | 0.00 | 0.00 | 71 | 1009.9 |
| 20260508102030 | 15 | 176 | 11.3 | 20.9 | 0.00 | 0.00 | 0.00 | 73 | 1009.9 |
| 20260508101054 | 15 | 148 | 8.0 | 12.9 | 0.00 | 0.00 | 0.00 | 74 | 1009.8 |
| 20260508100118 | 15 | 141 | 8.0 | 16.1 | 0.00 | 0.00 | 0.00 | 76 | 1009.8 |
| 20260508095040 | 15 | 114 | 9.7 | 14.5 | 0.00 | 0.00 | 0.00 | 75 | 1009.8 |
| 20260508094101 | 15 | 115 | 6.4 | 12.9 | 0.00 | 0.00 | 0.00 | 77 | 1009.7 |
| 20260508093042 | 15 | 145 | 8.0 | 14.5 | 0.00 | 0.00 | 0.00 | 78 | 1009.6 |
| 20260508092105 | 14 | 102 | 6.4 | 14.5 | 0.00 | 0.00 | 0.00 | 78 | 1009.6 |
| 20260508091129 | 14 | 133 | 6.4 | 12.9 | 0.00 | 0.00 | 0.00 | 78 | 1009.5 |
| 20260508090029 | 13 | 129 | 6.4 | 12.9 | 0.00 | 0.00 | 0.00 | 79 | 1009.7 |
| 20260508085054 | 13 | 120 | 4.8 | 11.3 | 0.00 | 0.00 | 0.00 | 80 | 1009.7 |
| 20260508084118 | 13 | 113 | 4.8 | 9.7 | 0.00 | 0.00 | 0.00 | 81 | 1009.5 |
| 20260508083038 | 13 | 73 | 4.8 | 11.3 | 0.00 | 0.00 | 0.00 | 82 | 1009.5 |
| 20260508082101 | 13 | 103 | 6.4 | 16.1 | 0.00 | 0.00 | 0.00 | 82 | 1009.6 |
| 20260508081021 | 13 | 95 | 8.0 | 14.5 | 0.00 | 0.00 | 0.00 | 82 | 1009.8 |
| 20260508080046 | 13 | 112 | 6.4 | 12.9 | 0.00 | 0.00 | 0.00 | 83 | 1009.6 |
| 20260508075109 | 13 | 98 | 6.4 | 12.9 | 0.00 | 0.00 | 0.00 | 84 | 1009.5 |
| 20260508074029 | 12 | 91 | 8.0 | 14.5 | 0.00 | 0.00 | 0.00 | 84 | 1009.5 |
| 20260508073053 | 12 | 100 | 9.7 | 16.1 | 0.00 | 0.00 | 0.00 | 84 | 1009.5 |
| 20260508072117 | 12 | 111 | 6.4 | 12.9 | 0.00 | 0.00 | 0.00 | 85 | 1009.4 |
| 20260508071037 | 12 | 105 | 6.4 | 12.9 | 0.00 | 0.00 | 0.00 | 85 | 1009.5 |
| 20260508065022 | 12 | 86 | 6.4 | 14.5 | 0.00 | 0.00 | 0.00 | 85 | 1009.3 |
| 20260508064046 | 12 | 127 | 6.4 | 14.5 | 0.00 | 0.00 | 0.00 | 85 | 1009.2 |
| 20260508063130 | 12 | 103 | 4.8 | 9.7 | 0.00 | 0.00 | 0.00 | 85 | 1009.1 |
| 20260508062029 | 12 | 116 | 4.8 | 11.3 | 0.00 | 0.00 | 0.00 | 85 | 1008.9 |
| 20260508061114 | 12 | 92 | 4.8 | 6.4 | 0.00 | 0.00 | 0.00 | 85 | 1008.6 |
| 20260508060020 | 12 | 85 | 3.2 | 6.4 | 0.00 | 0.00 | 0.00 | 85 | 1008.7 |
| 20260508055038 | 12 | 74 | 3.2 | 9.7 | 0.00 | 0.00 | 0.00 | 85 | 1008.7 |
| 20260508054102 | 12 | 68 | 0.0 | 3.2 | 0.00 | 0.00 | 0.00 | 85 | 1008.7 |
| 20260508053022 | 12 | 94 | 1.6 | 3.2 | 0.00 | 0.00 | 0.00 | 85 | 1008.7 |
| 20260508052046 | 12 | 96 | 3.2 | 6.4 | 0.00 | 0.00 | 0.00 | 85 | 1008.7 |
| 20260508051109 | 12 | 91 | 4.8 | 9.7 | 0.00 | 0.00 | 0.00 | 86 | 1008.7 |
| 20260508050030 | 12 | 87 | 3.2 | 9.7 | 0.00 | 0.00 | 0.00 | 87 | 1008.7 |
| 20260508045054 | 12 | 71 | 1.6 | 3.2 | 0.00 | 0.00 | 0.00 | 87 | 1008.7 |
| 20260508044138 | 12 | 78 | 1.6 | 3.2 | 0.00 | 0.00 | 0.00 | 87 | 1008.7 |
| 20260508043038 | 12 | 87 | 3.2 | 4.8 | 0.00 | 0.00 | 0.00 | 86 | 1008.8 |
| 20260508042101 | 12 | 82 | 1.6 | 6.4 | 0.00 | 0.00 | 0.00 | 86 | 1008.7 |
| 20260508041042 | 12 | 113 | 3.2 | 4.8 | 0.00 | 0.00 | 0.00 | 86 | 1008.7 |
| 20260508040046 | 12 | 97 | 3.2 | 6.4 | 0.00 | 0.00 | 0.00 | 85 | 1008.7 |
| 20260508035129 | 12 | 89 | 3.2 | 6.4 | 0.00 | 0.00 | 0.00 | 85 | 1008.9 |
| 20260508034049 | 12 | 79 | 4.8 | 6.4 | 0.00 | 0.00 | 0.00 | 86 | 1008.9 |
| 20260508033053 | 11 | 82 | 3.2 | 6.4 | 0.00 | 0.00 | 0.00 | 87 | 1009.1 |
| 20260508032117 | 11 | 69 | 1.6 | 3.2 | 0.00 | 0.00 | 0.00 | 87 | 1009.1 |
| 20260508031037 | 12 | 96 | 3.2 | 4.8 | 0.00 | 0.00 | 0.00 | 86 | 1009.0 |
| 20260508025023 | 12 | 72 | 1.6 | 4.8 | 0.00 | 0.00 | 0.00 | 85 | 1009.0 |
| 20260508024046 | 12 | 85 | 3.2 | 6.4 | 0.00 | 0.00 | 0.00 | 86 | 1008.9 |
| 20260508023110 | 11 | 85 | 3.2 | 4.8 | 0.00 | 0.00 | 0.00 | 88 | 1008.9 |
| 20260508022030 | 11 | 62 | 1.6 | 3.2 | 0.00 | 0.00 | 0.00 | 89 | 1009.1 |
| 20260508021054 | 11 | 0.0 | 0.0 | 0.00 | 0.00 | 0.00 | 89 | 1009.1 | |
| 20260508020137 | 11 | 0.0 | 0.0 | 0.00 | 0.00 | 0.00 | 89 | 1009.0 | |
| 20260508015038 | 11 | 0.0 | 0.0 | 0.00 | 0.00 | 0.00 | 89 | 1009.3 | |
| 20260508014102 | 11 | 67 | 1.6 | 3.2 | 0.00 | 0.00 | 0.00 | 90 | 1009.4 |
| 20260508013043 | 11 | 58 | 0.0 | 1.6 | 0.00 | 0.00 | 0.00 | 90 | 1009.5 |
| 20260508012046 | 11 | 74 | 1.6 | 3.2 | 0.00 | 0.00 | 0.00 | 90 | 1009.5 |
| 20260508011109 | 11 | 70 | 0.0 | 1.6 | 0.00 | 0.00 | 0.00 | 90 | 1009.5 |
| 20260508010030 | 11 | 82 | 1.6 | 3.2 | 0.00 | 0.00 | 0.00 | 90 | 1009.8 |
| 20260508005054 | 11 | 77 | 1.6 | 4.8 | 0.00 | 0.00 | 0.00 | 90 | 1009.8 |
| 20260508004118 | 11 | 119 | 3.2 | 6.4 | 0.00 | 0.00 | 0.00 | 90 | 1009.8 |
| 20260508003038 | 11 | 117 | 3.2 | 6.4 | 0.00 | 0.00 | 0.00 | 90 | 1009.9 |
| 20260508002101 | 11 | 113 | 3.2 | 6.4 | 0.00 | 0.00 | 0.00 | 91 | 1010.0 |
| 20260508001041 | 11 | 89 | 3.2 | 4.8 | 0.00 | 0.00 | 0.00 | 91 | 1010.0 |
| 20260508000046 | 11 | 97 | 3.2 | 6.4 | 0.00 | 0.00 | 0.00 | 91 | 1010.1 |
| 20260507235110 | 11 | 103 | 3.2 | 4.8 | 0.00 | 0.00 | 0.00 | 92 | 1010.0 |
| 20260507234030 | 11 | 99 | 3.2 | 3.2 | 0.00 | 0.00 | 0.00 | 91 | 1010.2 |
| 20260507233054 | 12 | 93 | 3.2 | 4.8 | 0.00 | 0.00 | 0.00 | 91 | 1010.3 |
| 20260507232118 | 12 | 78 | 1.6 | 3.2 | 0.00 | 0.00 | 0.00 | 91 | 1010.4 |
| 20260507231037 | 12 | 85 | 1.6 | 3.2 | 0.00 | 0.00 | 0.00 | 91 | 1010.4 |
| 20260507225042 | 12 | 75 | 1.6 | 3.2 | 0.00 | 0.00 | 0.00 | 90 | 1010.5 |
| 20260507224046 | 12 | 48 | 0.0 | 3.2 | 0.00 | 0.00 | 0.00 | 91 | 1010.6 |
| 20260507223110 | 12 | 70 | 3.2 | 6.4 | 0.00 | 0.00 | 0.00 | 90 | 1010.8 |
| 20260507222031 | 12 | 111 | 3.2 | 9.7 | 0.00 | 0.00 | 0.00 | 90 | 1010.9 |
| 20260507221054 | 12 | 106 | 4.8 | 6.4 | 0.00 | 0.00 | 0.00 | 90 | 1010.9 |
| 20260507220137 | 12 | 115 | 3.2 | 6.4 | 0.00 | 0.00 | 0.00 | 89 | 1010.8 |
| 20260507215058 | 13 | 109 | 3.2 | 4.8 | 0.00 | 0.00 | 0.00 | 89 | 1010.9 |
| 20260507214102 | 13 | 97 | 3.2 | 4.8 | 0.00 | 0.00 | 0.00 | 88 | 1011.0 |
| 20260507213022 | 13 | 112 | 3.2 | 4.8 | 0.00 | 0.00 | 0.00 | 88 | 1010.9 |
| 20260507212046 | 13 | 87 | 1.6 | 4.8 | 0.00 | 0.00 | 0.00 | 87 | 1010.7 |
| 20260507211111 | 13 | 82 | 1.6 | 3.2 | 0.00 | 0.00 | 0.00 | 86 | 1010.8 |
| 20260507210029 | 13 | 0.0 | 1.6 | 0.00 | 0.00 | 0.00 | 85 | 1010.6 | |
| 20260507205053 | 13 | 0.0 | 0.0 | 0.00 | 0.00 | 0.00 | 85 | 1010.6 | |
| 20260507204118 | 14 | 0.0 | 1.6 | 0.00 | 0.00 | 0.00 | 84 | 1010.5 | |
| 20260507203037 | 14 | 0.0 | 0.0 | 0.00 | 0.00 | 0.00 | 83 | 1010.4 | |
| 20260507202103 | 14 | 0.0 | 1.6 | 0.00 | 0.00 | 0.00 | 83 | 1010.4 | |
| 20260507201021 | 14 | 53 | 1.6 | 3.2 | 0.00 | 0.00 | 0.00 | 83 | 1010.3 |
| 20260507200045 | 14 | 66 | 3.2 | 4.8 | 0.00 | 0.00 | 0.00 | 82 | 1010.2 |
| 20260507195110 | 15 | 13 | 1.6 | 3.2 | 0.00 | 0.00 | 0.00 | 81 | 1010.2 |
| 20260507194029 | 15 | 23 | 1.6 | 3.2 | 0.00 | 0.00 | 0.00 | 81 | 1010.2 |
| 20260507193053 | 15 | 24 | 1.6 | 3.2 | 0.00 | 0.00 | 0.00 | 80 | 1010.2 |
| 20260507192137 | 15 | 79 | 0.0 | 1.6 | 0.00 | 0.00 | 0.00 | 79 | 1010.3 |
| 20260507191057 | 15 | 30 | 1.6 | 3.2 | 0.00 | 0.00 | 0.00 | 79 | 1010.2 |
| 20260507190122 | 15 | 84 | 1.6 | 4.8 | 0.00 | 0.00 | 0.00 | 80 | 1010.2 |
| 20260507185042 | 15 | 16 | 1.6 | 3.2 | 0.00 | 0.00 | 0.00 | 80 | 1010.1 |
| 20260507184048 | 15 | 298 | 4.8 | 6.4 | 0.00 | 0.00 | 0.00 | 78 | 1010.1 |
| 20260507183110 | 16 | 38 | 3.2 | 6.4 | 0.00 | 0.00 | 0.00 | 76 | 1010.0 |
| 20260507182030 | 16 | 25 | 0.0 | 3.2 | 0.00 | 0.00 | 0.00 | 76 | 1010.2 |
| 20260507181054 | 16 | 37 | 1.6 | 4.8 | 0.00 | 0.00 | 0.00 | 75 | 1010.2 |
| 20260507180119 | 16 | 37 | 3.2 | 4.8 | 0.00 | 0.00 | 0.00 | 73 | 1010.0 |
| 20260507175038 | 16 | 16 | 1.6 | 4.8 | 0.00 | 0.00 | 0.00 | 74 | 1010.0 |
| 20260507174122 | 16 | 15 | 3.2 | 6.4 | 0.00 | 0.00 | 0.00 | 74 | 1010.0 |
| 20260507173022 | 16 | 357 | 3.2 | 9.7 | 0.00 | 0.00 | 0.00 | 75 | 1009.9 |
| 20260507172046 | 16 | 325 | 6.4 | 14.5 | 0.00 | 0.00 | 0.00 | 74 | 1009.8 |
| 20260507171111 | 16 | 22 | 3.2 | 9.7 | 0.00 | 0.00 | 0.00 | 74 | 1009.8 |
| 20260507170029 | 17 | 13 | 1.6 | 4.8 | 0.00 | 0.00 | 0.00 | 73 | 1010.1 |
| 20260507165115 | 17 | 33 | 3.2 | 6.4 | 0.00 | 0.00 | 0.00 | 72 | 1010.0 |
| 20260507164117 | 17 | 37 | 3.2 | 6.4 | 0.00 | 0.00 | 0.00 | 72 | 1010.3 |
| 20260507163038 | 17 | 31 | 1.6 | 6.4 | 0.00 | 0.00 | 0.00 | 70 | 1010.4 |
| 20260507162122 | 18 | 25 | 3.2 | 9.7 | 0.00 | 0.00 | 0.00 | 68 | 1010.4 |
| 20260507161021 | 17 | 29 | 3.2 | 6.4 | 0.00 | 0.00 | 0.00 | 68 | 1010.4 |
| 20260507160046 | 17 | 9 | 4.8 | 9.7 | 0.00 | 0.00 | 0.00 | 67 | 1010.5 |
| 20260507155109 | 17 | 354 | 3.2 | 6.4 | 0.00 | 0.00 | 0.00 | 63 | 1010.3 |
| 20260507154029 | 17 | 347 | 4.8 | 11.3 | 0.00 | 0.00 | 0.00 | 63 | 1010.4 |
| 20260507153134 | 17 | 344 | 6.4 | 12.9 | 0.00 | 0.00 | 0.00 | 63 | 1010.3 |
| 20260507152118 | 17 | 319 | 6.4 | 12.9 | 0.00 | 0.00 | 0.00 | 65 | 1010.3 |
| 20260507151059 | 17 | 356 | 4.8 | 16.1 | 0.00 | 0.00 | 0.00 | 67 | 1010.4 |
| 20260507145022 | 16 | 351 | 4.8 | 9.7 | 0.00 | 0.00 | 0.00 | 74 | 1010.6 |
| 20260507144046 | 16 | 358 | 4.8 | 11.3 | 0.00 | 0.00 | 0.00 | 75 | 1010.8 |
| 20260507143110 | 16 | 22 | 3.2 | 6.4 | 0.00 | 0.00 | 0.00 | 75 | 1011.3 |
| 20260507142030 | 16 | 27 | 1.6 | 6.4 | 0.00 | 0.00 | 0.00 | 73 | 1011.3 |
| 20260507141054 | 16 | 12 | 6.4 | 11.3 | 0.00 | 0.00 | 0.00 | 70 | 1011.2 |
| 20260507140118 | 16 | 15 | 4.8 | 9.7 | 0.00 | 0.00 | 0.00 | 72 | 1011.1 |
| 20260507135037 | 17 | 26 | 6.4 | 12.9 | 0.00 | 0.00 | 0.00 | 74 | 1011.2 |
| 20260507134102 | 17 | 85 | 8.0 | 16.1 | 0.00 | 0.00 | 0.00 | 72 | 1011.0 |
| 20260507133021 | 17 | 351 | 8.0 | 16.1 | 0.00 | 0.00 | 0.00 | 73 | 1011.1 |
| 20260507132106 | 16 | 23 | 6.4 | 16.1 | 0.00 | 0.00 | 0.00 | 75 | 1010.9 |
| 20260507131109 | 16 | 341 | 6.4 | 17.7 | 0.00 | 0.00 | 0.00 | 77 | 1011.0 |
| 20260507130049 | 16 | 349 | 6.4 | 17.7 | 0.00 | 0.00 | 0.00 | 76 | 1011.0 |
| 20260507125054 | 16 | 359 | 8.0 | 16.1 | 0.00 | 0.00 | 0.00 | 76 | 1011.1 |
| 20260507124117 | 16 | 358 | 8.0 | 17.7 | 0.00 | 0.00 | 0.00 | 74 | 1011.4 |
| 20260507123038 | 16 | 10 | 6.4 | 22.5 | 0.00 | 0.00 | 0.00 | 74 | 1011.5 |